| time (UTC) | temp F | wind direction | speed MPH | gust MPH | rain 1hr in | rain 24hr in | rain mn in | humidity % | barometer mb |
| 20260504045213 | 50 | 323 | 2.0 | 4.0 | 0.00 | 0.00 | 0.00 | 82 | 1014.1 |
| 20260504044211 | 50 | 267 | 2.0 | 4.0 | 0.00 | 0.00 | 0.00 | 82 | 1014.1 |
| 20260504043211 | 49 | 288 | 2.0 | 4.0 | 0.00 | 0.00 | 0.00 | 82 | 1014.2 |
| 20260504042211 | 49 | 257 | 2.0 | 4.0 | 0.00 | 0.00 | 0.00 | 81 | 1014.2 |
| 20260504041211 | 49 | 242 | 1.0 | 3.0 | 0.00 | 0.00 | 0.00 | 81 | 1014.2 |
| 20260504040211 | 49 | 262 | 0.0 | 0.0 | 0.00 | 0.00 | 0.00 | 81 | 1014.2 |
| 20260504035212 | 49 | 255 | 1.0 | 3.0 | 0.00 | 0.00 | 0.00 | 81 | 1014.3 |
| 20260504034212 | 50 | 227 | 0.0 | 0.0 | 0.00 | 0.00 | 0.00 | 81 | 1014.4 |
| 20260504033211 | 50 | 200 | 1.0 | 3.0 | 0.00 | 0.00 | 0.00 | 81 | 1014.5 |
| 20260504032211 | 50 | 213 | 0.0 | 0.0 | 0.00 | 0.00 | 0.00 | 81 | 1014.4 |
| 20260504031211 | 50 | 215 | 0.0 | 3.0 | 0.00 | 0.00 | 0.00 | 80 | 1014.5 |
| 20260504030211 | 50 | 207 | 3.0 | 6.0 | 0.00 | 0.00 | 0.00 | 80 | 1014.6 |
| 20260504025211 | 50 | 180 | 2.0 | 4.0 | 0.00 | 0.00 | 0.00 | 79 | 1014.6 |
| 20260504024211 | 50 | 169 | 1.0 | 2.0 | 0.00 | 0.00 | 0.00 | 79 | 1014.6 |
| 20260504023211 | 50 | 157 | 0.0 | 0.0 | 0.00 | 0.00 | 0.00 | 78 | 1014.7 |
| 20260504022211 | 51 | 157 | 0.0 | 0.0 | 0.00 | 0.00 | 0.00 | 78 | 1014.7 |
| 20260504021215 | 52 | 159 | 0.0 | 0.0 | 0.00 | 0.00 | 0.00 | 75 | 1014.5 |
| 20260504020211 | 51 | 163 | 3.0 | 5.0 | 0.00 | 0.00 | 0.00 | 77 | 1014.6 |
| 20260504015211 | 51 | 164 | 3.0 | 5.0 | 0.00 | 0.00 | 0.00 | 76 | 1014.6 |
| 20260504014211 | 52 | 135 | 0.0 | 0.0 | 0.00 | 0.00 | 0.00 | 76 | 1014.7 |
| 20260504013211 | 52 | 136 | 0.0 | 0.0 | 0.00 | 0.00 | 0.00 | 76 | 1014.5 |
| 20260504012211 | 53 | 159 | 0.0 | 0.0 | 0.00 | 0.00 | 0.00 | 75 | 1014.5 |
| 20260504011211 | 53 | 150 | 0.0 | 0.0 | 0.00 | 0.00 | 0.00 | 75 | 1014.5 |
| 20260504010211 | 53 | 113 | 0.0 | 4.0 | 0.00 | 0.00 | 0.00 | 75 | 1014.5 |
| 20260504005211 | 53 | 197 | 1.0 | 4.0 | 0.00 | 0.00 | 0.00 | 75 | 1014.5 |
| 20260504004211 | 54 | 209 | 3.0 | 5.0 | 0.00 | 0.00 | 0.00 | 74 | 1014.6 |
| 20260504003211 | 54 | 223 | 1.0 | 4.0 | 0.00 | 0.00 | 0.00 | 73 | 1014.5 |
| 20260504002211 | 54 | 192 | 2.0 | 4.0 | 0.00 | 0.00 | 0.00 | 72 | 1014.6 |
| 20260504001211 | 55 | 204 | 0.0 | 3.0 | 0.00 | 0.00 | 0.00 | 71 | 1014.6 |
| 20260504000212 | 55 | 157 | 0.0 | 4.0 | 0.00 | 0.00 | 0.00 | 70 | 1014.5 |
| 20260503235211 | 56 | 163 | 0.0 | 4.0 | 0.00 | 0.00 | 0.00 | 69 | 1014.5 |
| 20260503234211 | 56 | 207 | 2.0 | 4.0 | 0.00 | 0.00 | 0.00 | 68 | 1014.7 |
| 20260503233211 | 57 | 176 | 0.0 | 4.0 | 0.00 | 0.00 | 0.00 | 67 | 1014.6 |
| 20260503232212 | 57 | 211 | 3.0 | 4.0 | 0.00 | 0.00 | 0.00 | 67 | 1014.6 |
| 20260503231211 | 57 | 259 | 1.0 | 4.0 | 0.00 | 0.00 | 0.00 | 67 | 1014.7 |
| 20260503230212 | 57 | 299 | 3.0 | 4.0 | 0.00 | 0.00 | 0.00 | 66 | 1014.7 |
| 20260503225211 | 58 | 261 | 1.0 | 4.0 | 0.00 | 0.00 | 0.00 | 66 | 1014.6 |
| 20260503224211 | 58 | 261 | 2.0 | 4.0 | 0.00 | 0.00 | 0.00 | 67 | 1014.5 |
| 20260503223210 | 58 | 221 | 2.0 | 4.0 | 0.00 | 0.00 | 0.00 | 67 | 1014.5 |
| 20260503222210 | 58 | 259 | 2.0 | 3.0 | 0.00 | 0.00 | 0.00 | 67 | 1014.4 |
| 20260503221211 | 58 | 235 | 2.0 | 4.0 | 0.00 | 0.00 | 0.00 | 67 | 1014.3 |
| 20260503220211 | 58 | 211 | 2.0 | 5.0 | 0.00 | 0.00 | 0.00 | 67 | 1014.3 |
| 20260503215211 | 58 | 207 | 2.0 | 4.0 | 0.00 | 0.00 | 0.00 | 66 | 1014.3 |
| 20260503214211 | 59 | 212 | 2.0 | 4.0 | 0.00 | 0.00 | 0.00 | 66 | 1014.3 |
| 20260503213211 | 59 | 182 | 0.0 | 0.0 | 0.00 | 0.00 | 0.00 | 65 | 1014.2 |
| 20260503212212 | 60 | 153 | 0.0 | 0.0 | 0.00 | 0.00 | 0.00 | 64 | 1014.2 |
| 20260503211211 | 60 | 167 | 0.0 | 0.0 | 0.00 | 0.00 | 0.00 | 64 | 1014.3 |
| 20260503210210 | 61 | 168 | 0.0 | 0.0 | 0.00 | 0.00 | 0.00 | 63 | 1014.2 |
| 20260503205212 | 61 | 165 | 0.0 | 2.0 | 0.00 | 0.00 | 0.00 | 62 | 1014.2 |
| 20260503204211 | 61 | 184 | 0.0 | 1.0 | 0.00 | 0.00 | 0.00 | 61 | 1014.2 |
| 20260503203211 | 62 | 161 | 0.0 | 4.0 | 0.00 | 0.00 | 0.00 | 60 | 1014.2 |
| 20260503202212 | 62 | 163 | 0.0 | 0.0 | 0.00 | 0.00 | 0.00 | 59 | 1014.1 |
| 20260503201211 | 62 | 151 | 1.0 | 3.0 | 0.00 | 0.00 | 0.00 | 59 | 1014.1 |
| 20260503200212 | 62 | 162 | 1.0 | 4.0 | 0.00 | 0.00 | 0.00 | 58 | 1014.2 |
| 20260503195211 | 62 | 181 | 3.0 | 7.0 | 0.00 | 0.00 | 0.00 | 57 | 1014.1 |
| 20260503194211 | 62 | 165 | 3.0 | 6.0 | 0.00 | 0.00 | 0.00 | 56 | 1014.1 |
| 20260503193212 | 62 | 191 | 3.0 | 7.0 | 0.00 | 0.00 | 0.00 | 56 | 1014.1 |
| 20260503192211 | 62 | 165 | 3.0 | 7.0 | 0.00 | 0.00 | 0.00 | 56 | 1014.0 |
| 20260503191211 | 63 | 165 | 3.0 | 6.0 | 0.00 | 0.00 | 0.00 | 57 | 1013.9 |
| 20260503190211 | 63 | 168 | 2.0 | 5.0 | 0.00 | 0.00 | 0.00 | 57 | 1013.8 |
| 20260503185211 | 63 | 150 | 3.0 | 7.0 | 0.00 | 0.00 | 0.00 | 57 | 1013.9 |
| 20260503184211 | 64 | 201 | 3.0 | 7.0 | 0.00 | 0.00 | 0.00 | 58 | 1013.9 |
| 20260503183211 | 64 | 135 | 4.0 | 7.0 | 0.00 | 0.00 | 0.00 | 57 | 1014.0 |
| 20260503182211 | 65 | 133 | 4.0 | 7.0 | 0.00 | 0.00 | 0.00 | 55 | 1014.0 |
| 20260503181211 | 65 | 143 | 2.0 | 6.0 | 0.00 | 0.00 | 0.00 | 52 | 1014.0 |
| 20260503180210 | 66 | 153 | 3.0 | 5.0 | 0.00 | 0.00 | 0.00 | 50 | 1014.0 |
| 20260503175210 | 67 | 218 | 1.0 | 6.0 | 0.00 | 0.00 | 0.00 | 51 | 1014.1 |
| 20260503174210 | 67 | 218 | 1.0 | 7.0 | 0.00 | 0.00 | 0.00 | 50 | 1014.1 |
| 20260503173210 | 68 | 289 | 5.0 | 10.0 | 0.00 | 0.00 | 0.00 | 47 | 1014.3 |
| 20260503172210 | 68 | 278 | 4.0 | 7.0 | 0.00 | 0.00 | 0.00 | 45 | 1014.3 |
| 20260503171212 | 68 | 262 | 5.0 | 8.0 | 0.00 | 0.00 | 0.00 | 43 | 1014.3 |
| 20260503170212 | 68 | 287 | 7.0 | 12.0 | 0.00 | 0.00 | 0.00 | 41 | 1014.3 |
| 20260503160212 | 70 | 167 | 4.0 | 8.0 | 0.00 | 0.00 | 0.00 | 39 | 1014.3 |
| 20260503150211 | 72 | 279 | 10.0 | 18.0 | 0.00 | 0.00 | 0.00 | 34 | 1014.0 |
| 20260503140211 | 76 | 262 | 12.0 | 24.0 | 0.00 | 0.00 | 0.00 | 31 | 1014.0 |
| 20260503131211 | 82 | 249 | 14.0 | 22.0 | 0.00 | 0.00 | 0.00 | 27 | 1013.6 |
| 20260503130211 | 83 | 270 | 11.0 | 19.0 | 0.00 | 0.00 | 0.00 | 26 | 1013.7 |
| 20260503120212 | 83 | 227 | 9.0 | 19.0 | 0.00 | 0.00 | 0.00 | 27 | 1013.4 |
| 20260503110211 | 76 | 194 | 8.0 | 13.0 | 0.00 | 0.00 | 0.00 | 41 | 1013.8 |
| 20260503100211 | 70 | 178 | 7.0 | 12.0 | 0.00 | 0.00 | 0.00 | 50 | 1014.4 |
| 20260503090211 | 69 | 160 | 4.0 | 10.0 | 0.00 | 0.00 | 0.00 | 51 | 1014.5 |
| 20260503081210 | 68 | 146 | 4.0 | 10.0 | 0.00 | 0.00 | 0.00 | 51 | 1014.7 |
| 20260503080211 | 68 | 186 | 4.0 | 12.0 | 0.00 | 0.00 | 0.00 | 52 | 1015.0 |
| 20260503072210 | 65 | 142 | 6.0 | 12.0 | 0.00 | 0.00 | 0.00 | 59 | 1015.1 |
| 20260503071210 | 64 | 152 | 5.0 | 10.0 | 0.00 | 0.00 | 0.00 | 62 | 1015.2 |
| 20260503070210 | 63 | 160 | 5.0 | 9.0 | 0.00 | 0.00 | 0.00 | 64 | 1015.2 |
| 20260503060210 | 58 | 229 | 4.0 | 8.0 | 0.00 | 0.00 | 0.00 | 73 | 1015.3 |
| 20260503054216 | 58 | 192 | 2.0 | 6.0 | 0.00 | 0.00 | 0.00 | 72 | 1015.3 |
| 20260503053216 | 57 | 222 | 3.0 | 7.0 | 0.00 | 0.00 | 0.00 | 73 | 1015.3 |
| 20260503052216 | 57 | 234 | 3.0 | 6.0 | 0.00 | 0.00 | 0.00 | 73 | 1015.1 |
| 20260503051215 | 57 | 205 | 3.0 | 7.0 | 0.00 | 0.00 | 0.00 | 73 | 1015.1 |
| 20260503050215 | 56 | 167 | 3.0 | 6.0 | 0.00 | 0.00 | 0.00 | 72 | 1015.0 |